Tracking 19827 objects as of 21-Aug-2019
HD Live streaming from Space Station
objects crossing your sky now

RADUGA 4

Track RADUGA 4 now!
RADUGA 4 is classified as:


NORAD ID: 10987
Int'l Code: 1978-073A
Perigee: 35,767.4 km
Apogee: 35,864.1 km
Inclination: 10.7 °
Period: 1,437.2 minutes
Semi major axis: 42186 km
RCS: 1 m2 (large)
Launch date: July 18, 1978
Source: Commonwealth of Independent States (former USSR) (CIS)
Launch site: TYURATAM MISSILE AND SPACE COMPLEX (TTMTR)
aabbcc
Your satellite tracking list
Your tracking list is empty




NASA's NSSDC Master Catalog

Two Line Element Set (TLE):
1 10987U 78073A   19232.82306455 -.00000104  00000-0  00000+0 0  9995
2 10987  10.7495 309.4819 0011459 331.5714  62.3329  1.00193448 94593
Source of the keplerian elements: AFSPC